[[{"header":{"parameterUnit":"m.s-1","parameterCategory":1,"la1":30.2991,"la2":30.254,"lo1":-89.0895,"lo2":-89.0444,"dy":0.0017,"dx":0.0017,"nx":28,"ny":28,"refTime":"2025-05-18T21:00:00:Z","depth":0,"parameterNumber":2,"parameterNumberName":"U-component_of_WINDS"},"data":[0,0,0,0,0,0,0,0,0,0,0,0,0,0,0,0,0,0,0,0,0,0,0,0,0,0,0,0,0,0,0,0,0,0,0,0,0,0,0,0,0,0,0,0,0,0,0,0,0,0,0,0,0,0,0,0,0,0,0.9175,0.9174,0,0.9156,0.9156,0.9156,0.912,0.9119,0.9118,0.9118,0.9099,0.9099,0.91,0,0,0,0,0,0,0,0,0,0,0,0,0,0.9178,0.9178,0.9175,0.9174,0.9174,0.9156,0.9156,0.9156,0.912,0.9119,0.9118,0.9117,0.9099,0.9099,0.91,0,0,0,0,0,0,0,0,0,0,0,0,0,0.917,0.9178,0.9175,0.9154,0.9152,0.9156,0.9156,0.9156,0.912,0.9119,0.9118,0.9117,0.9099,0.9099,0.91,0.9123,0,0,0.9101,0.9101,0,0,0,0,0,0,0,0,0.9171,0.917,0.9157,0.9155,0.9153,0.9139,0.9151,0.9145,0.912,0.9132,0.9118,0.9116,0.9113,0.9113,0.9111,0.9122,0.9121,0.9101,0.9101,0.9101,0.9101,0,0,0,0,0,0,0,0.9171,0.9171,0.9167,0.9157,0.9155,0.9146,0.9143,0.9149,0.9129,0.9131,0.9128,0.9127,0.9112,0.9111,0.9111,0.9121,0.9101,0.9101,0.9101,0.9101,0.9149,0.915,0,0,0,0,0,0,0.9175,0.9171,0.9168,0.9167,0.9159,0.9146,0.9144,0.9145,0.9129,0.9125,0.9128,0.9125,0.9111,0.911,0.911,0.9135,0.9101,0.9101,0.9101,0.9147,0.9149,0.915,0,0,0,0,0,0,0.9175,0.9175,0.9169,0.9168,0.9167,0.9148,0.9149,0.9145,0.9144,0.9126,0.9123,0.913,0.911,0.911,0.912,0.9134,0.9101,0.9102,0.9146,0.9148,0.9149,0.9186,0,0,0,0,0,0,0.9175,0.9175,0.9184,0.9169,0.9167,0.9179,0.915,0.9145,0.9145,0.9141,0.9128,0.9125,0.911,0.9119,0.912,0.9134,0.9102,0.9145,0.9147,0.9149,0.9183,0.9188,0.9193,0,0,0,0,0,0.9175,0.9195,0.9184,0.9184,0.9177,0.918,0.9179,0.9161,0.9146,0.9154,0.9143,0.9125,0.9133,0.9121,0.9121,0.9135,0.9144,0.9146,0.9149,0.9181,0.9187,0.9193,0,0,0,0,0,0,0.9213,0.9193,0.9181,0.9196,0.919,0.9174,0.9184,0.9168,0.9166,0.9163,0.9141,0.9138,0.9151,0.9144,0.9132,0.9156,0.9135,0.9138,0.916,0.9166,0.9171,0.9171,0.9102,0,0,0,0,0,0.9223,0.9226,0.9209,0.9224,0.9221,0.9203,0.9204,0.919,0.9183,0.918,0.9169,0.9163,0.9163,0.9164,0.9164,0.9182,0.9178,0.9192,0.9197,0.9201,0.9203,0.9211,0.9217,0.9158,0.9158,0.9158,0,0,0.9243,0.9233,0.9236,0.9231,0.9225,0.9228,0.9201,0.9207,0.9209,0.9181,0.9189,0.9181,0.9173,0.9187,0.9192,0.9181,0.9219,0.9204,0.9208,0.9208,0.9214,0.922,0.9225,0.916,0.9159,0.9159,0,0,0.9282,0.9275,0.9286,0.928,0.9271,0.9259,0.9261,0.9247,0.9241,0.9249,0.9228,0.923,0.9232,0.9227,0.9224,0.9261,0.9244,0.9261,0.9286,0.9294,0.9299,0.9303,0.9315,0.9319,0.9264,0.9264,0.9264,0,0.9309,0.9314,0.9294,0.9301,0.9299,0.9273,0.9284,0.9279,0.927,0.9269,0.9258,0.9259,0.9251,0.9263,0.9272,0.9271,0.9273,0.9262,0.93,0.9304,0.9307,0.9318,0.9323,0.9266,0.9266,0.9266,0.9265,0,0.9346,0.935,0.936,0.9351,0.9351,0.936,0.9341,0.9343,0.933,0.9319,0.9327,0.9317,0.9314,0.9316,0.9303,0.9325,0.9319,0.9304,0.9282,0.9315,0.9325,0.9329,0.9269,0.9268,0.9268,0.9267,0,0,0.9407,0.9388,0.9392,0.9387,0.9375,0.9377,0.9384,0.9381,0.9382,0.9377,0.9382,0.9384,0.937,0.9367,0.9354,0.9361,0.9389,0.9345,0.9344,0.9352,0.9411,0.9421,0.9427,0.9378,0.9379,0.938,0.9411,0,0.9442,0.9454,0.9436,0.9451,0.9454,0.943,0.9436,0.9429,0.9419,0.942,0.9409,0.941,0.9392,0.939,0.9396,0.9384,0.94,0.9382,0.9382,0.9382,0.9383,0.9432,0.9443,0.9473,0.9415,0.9416,0.9416,0,0.9485,0.9481,0.9496,0.9482,0.9482,0.9488,0.9483,0.9484,0.9476,0.9468,0.9465,0.9449,0.9454,0.9435,0.9442,0.943,0.9429,0.9424,0.9424,0.9422,0.94,0.943,0.9483,0.9487,0.9423,0.9422,0.9422,0,0.9526,0.9525,0.9533,0.953,0.9514,0.9519,0.9512,0.9503,0.9502,0.9497,0.9496,0.9493,0.9491,0.9489,0.9472,0.946,0.9481,0.946,0.9474,0.9475,0.9479,0.9478,0.9531,0.9481,0.9481,0.9481,0.9481,0,0.9566,0.9576,0.9551,0.9556,0.9567,0.9547,0.9557,0.9549,0.954,0.9543,0.9523,0.9526,0.9504,0.9505,0.9492,0.95,0.9499,0.9493,0.9489,0.9494,0.9494,0.9492,0.9489,0.9482,0.9482,0.9481,0.9481,0,0.9613,0.9597,0.9605,0.9589,0.9585,0.9593,0.9579,0.9583,0.9572,0.9576,0.9576,0.9558,0.9558,0.9541,0.9538,0.9529,0.9541,0.9534,0.9544,0.9541,0.9555,0.9554,0.9606,0.9612,0.956,0.9561,0.9561,0,0.9639,0.9646,0.9631,0.9631,0.9625,0.9626,0.9624,0.9605,0.9605,0.9595,0.96,0.9598,0.9595,0.9596,0.9582,0.9579,0.9571,0.959,0.9571,0.9575,0.957,0.9569,0.9569,0.9594,0.9595,0.9595,0.9596,0,0.9686,0.9678,0.9676,0.9672,0.967,0.9666,0.966,0.9662,0.9641,0.9641,0.964,0.9638,0.9634,0.9632,0.9627,0.962,0.9604,0.9602,0.9605,0.9609,0.9613,0.961,0.9553,0.96,0.96,0.96,0.9599,0.9599,0.9722,0.9726,0.9716,0.9715,0.9709,0.9704,0.9706,0.9695,0.9694,0.9689,0.9678,0.9679,0.967,0.9661,0.9655,0.9655,0.9646,0.965,0.9651,0.9652,0.9654,0.9615,0.9655,0.9654,0.9654,0.9654,0.9654,0,0.9767,0.9759,0.9758,0.975,0.9749,0.9735,0.9728,0.9728,0.9728,0.9721,0.9719,0.9717,0.9715,0.9702,0.9698,0.9701,0.9693,0.97,0.9699,0.9697,0.9664,0.9661,0.9706,0.9706,0.9706,0.9706,0.9706,0.9706,0.9789,0.9796,0.9786,0.9789,0.9782,0.9782,0.9779,0.9774,0.9768,0.9767,0.9765,0.9757,0.9747,0.9742,0.9739,0.9735,0.9734,0.9743,0.9737,0.9705,0.97,0.9695,0.9692,0.9744,0.9744,0.977,0.9771,0.9771]},{"header":{"parameterUnit":"m.s-1","parameterCategory":1,"la1":30.2991,"la2":30.254,"lo1":-89.0895,"lo2":-89.0444,"dy":0.0017,"dx":0.0017,"nx":28,"ny":28,"refTime":"2025-05-18T21:00:00:Z","depth":0,"parameterNumber":3,"parameterNumberName":"V-component_of_WINDS"},"data":[0,0,0,0,0,0,0,0,0,0,0,0,0,0,0,0,0,0,0,0,0,0,0,0,0,0,0,0,0,0,0,0,0,0,0,0,0,0,0,0,0,0,0,0,0,0,0,0,0,0,0,0,0,0,0,0,0,0,4.6216,4.6217,0,4.6286,4.6287,4.6288,4.6254,4.6252,4.625,4.6248,4.6318,4.6322,4.6325,0,0,0,0,0,0,0,0,0,0,0,0,0,4.6051,4.6055,4.6216,4.6217,4.6218,4.6286,4.6287,4.6288,4.6254,4.6252,4.6249,4.6247,4.6317,4.6321,4.6325,0,0,0,0,0,0,0,0,0,0,0,0,0,4.6122,4.6056,4.6216,4.6209,4.6209,4.6286,4.6287,4.6289,4.6254,4.6252,4.6249,4.6246,4.6316,4.6321,4.6326,4.6413,0,0,4.6342,4.6345,0,0,0,0,0,0,0,0,4.6118,4.6128,4.6209,4.621,4.621,4.6259,4.6255,4.633,4.6255,4.6237,4.6248,4.6245,4.63,4.6307,4.6326,4.6417,4.642,4.6343,4.6346,4.6348,4.635,0,0,0,0,0,0,0,4.6113,4.6125,4.6244,4.6211,4.6211,4.6202,4.6209,4.6269,4.6283,4.6239,4.6236,4.6245,4.63,4.6321,4.6327,4.6421,4.6343,4.6347,4.6351,4.6353,4.6587,4.6589,0,0,0,0,0,0,4.6109,4.6121,4.6242,4.6246,4.6157,4.6207,4.6215,4.6246,4.6282,4.6285,4.6247,4.6243,4.6313,4.6321,4.633,4.6434,4.6348,4.6353,4.6356,4.6584,4.6587,4.6591,0,0,0,0,0,0,4.6106,4.612,4.6239,4.6183,4.6198,4.6213,4.6248,4.6248,4.6269,4.6289,4.6291,4.6266,4.6311,4.6322,4.6393,4.6436,4.6356,4.6361,4.658,4.6585,4.6589,4.6644,0,0,0,0,0,0,4.6101,4.6119,4.6153,4.6184,4.6201,4.6302,4.625,4.6252,4.6279,4.6274,4.6307,4.631,4.631,4.6385,4.6398,4.6442,4.6365,4.6576,4.6582,4.6587,4.6639,4.665,4.666,0,0,0,0,0,4.6095,4.6165,4.6155,4.6169,4.6243,4.6304,4.6314,4.6313,4.6282,4.6316,4.6329,4.6309,4.6429,4.6393,4.6407,4.6453,4.6573,4.658,4.6587,4.6634,4.6648,4.666,0,0,0,0,0,0,4.6138,4.6169,4.6158,4.624,4.627,4.6298,4.6341,4.6328,4.6366,4.636,4.6357,4.6364,4.6438,4.6453,4.6411,4.654,4.6497,4.6507,4.6527,4.6541,4.6551,4.6546,4.6369,0,0,0,0,0,4.6157,4.6204,4.6229,4.6299,4.6315,4.6326,4.6352,4.6349,4.6379,4.6391,4.6409,4.6439,4.6484,4.6513,4.6555,4.6641,4.6647,4.668,4.669,4.6699,4.6708,4.6754,4.6768,4.6613,4.6613,4.6613,0,0,4.6196,4.6219,4.625,4.6308,4.6331,4.638,4.6336,4.639,4.6426,4.6399,4.6468,4.6482,4.6515,4.6594,4.6629,4.6608,4.6752,4.6708,4.6714,4.6718,4.6762,4.6777,4.679,4.6617,4.6617,4.6616,0,0,4.6294,4.6316,4.6377,4.6401,4.6436,4.6443,4.6458,4.6488,4.6497,4.6566,4.6547,4.6589,4.6666,4.6691,4.6713,4.682,4.6803,4.6834,4.689,4.6935,4.6947,4.6958,4.6996,4.701,4.6842,4.6843,4.6843,0,4.6338,4.6412,4.641,4.6465,4.6492,4.6471,4.6532,4.6555,4.6602,4.6621,4.6597,4.6693,4.6714,4.6798,4.6824,4.6843,4.6859,4.683,4.6946,4.6956,4.6967,4.7003,4.7017,4.6846,4.6846,4.6845,4.6845,0,4.6465,4.6516,4.6561,4.6608,4.6639,4.6697,4.6704,4.6736,4.673,4.6739,4.6809,4.6834,4.688,4.69,4.6894,4.6984,4.6969,4.6946,4.6902,4.6985,4.7019,4.7033,4.6851,4.685,4.6849,4.6848,0,0,4.6591,4.6636,4.6653,4.6674,4.6711,4.675,4.6808,4.6854,4.6881,4.6914,4.6962,4.7028,4.7006,4.7032,4.7029,4.7069,4.7152,4.704,4.7041,4.706,4.7252,4.7269,4.7285,4.7141,4.7144,4.7146,4.7249,0,4.6691,4.6792,4.6792,4.6884,4.6932,4.6912,4.6962,4.699,4.7,4.7041,4.7052,4.7099,4.7067,4.7082,4.7121,4.7134,4.719,4.7126,4.7185,4.7187,4.7177,4.7303,4.7322,4.7418,4.7262,4.7264,4.7266,0,4.6821,4.6859,4.6957,4.6988,4.7007,4.7052,4.7095,4.7134,4.7166,4.717,4.7199,4.719,4.7248,4.7203,4.7282,4.7239,4.7263,4.7273,4.7276,4.7282,4.7231,4.7312,4.7449,4.7463,4.7287,4.7285,4.7284,0,4.6903,4.6979,4.7047,4.7066,4.7103,4.7135,4.7152,4.7181,4.7209,4.7246,4.7264,4.7307,4.7331,4.7364,4.7367,4.7334,4.7447,4.7402,4.7452,4.7452,4.7476,4.7474,4.7619,4.7492,4.7492,4.7491,4.7491,0,4.7015,4.7075,4.7084,4.7126,4.7194,4.7193,4.7259,4.7273,4.7299,4.7343,4.7329,4.737,4.7372,4.7414,4.7416,4.7482,4.7492,4.7497,4.7497,4.7499,4.7498,4.7514,4.7508,4.7495,4.7494,4.7493,4.7493,0,4.7118,4.7127,4.72,4.723,4.7238,4.7287,4.7312,4.7352,4.736,4.7416,4.7429,4.7443,4.7492,4.7498,4.7556,4.7557,4.7636,4.7629,4.7625,4.7624,4.7674,4.7669,4.7833,4.7855,4.7714,4.7715,4.7716,0,4.7189,4.7235,4.727,4.7299,4.7318,4.7364,4.7393,4.7394,4.7424,4.7464,4.7499,4.7546,4.7585,4.7664,4.7679,4.7722,4.7716,4.7771,4.7723,4.7723,4.7717,4.7714,4.7719,4.778,4.7782,4.7783,4.7784,0,4.7314,4.7316,4.7358,4.7402,4.7436,4.7471,4.7503,4.7527,4.7532,4.7567,4.7617,4.7647,4.7706,4.7754,4.7797,4.7813,4.78,4.7799,4.7813,4.7815,4.7811,4.7814,4.7651,4.7795,4.7794,4.7793,4.7793,4.7792,4.7403,4.7443,4.7474,4.7521,4.7546,4.7577,4.7616,4.7629,4.7672,4.772,4.7718,4.7773,4.7803,4.786,4.788,4.7923,4.7905,4.7925,4.793,4.7935,4.794,4.7804,4.7931,4.7931,4.793,4.793,4.793,0,4.7527,4.7546,4.759,4.7636,4.7673,4.7657,4.7692,4.7724,4.7773,4.7803,4.7841,4.7899,4.7945,4.7964,4.8009,4.804,4.8035,4.8052,4.8049,4.8053,4.7954,4.7937,4.8055,4.8055,4.8055,4.8055,4.8055,4.8055,4.7596,4.7663,4.7669,4.7748,4.7767,4.7821,4.7843,4.7871,4.7894,4.796,4.7998,4.801,4.8035,4.8082,4.8124,4.8128,4.8145,4.8165,4.8166,4.8073,4.806,4.8048,4.8033,4.8169,4.8169,4.8263,4.8263,4.8264]}]]